Overview Statistics Trail Chart Weather Telemetry Raw packets
 

This is the latest recevied weather packets stored in our database for station/object KB1WCR. If no packets are shown the sender has not sent any weather packets the latest 10 day(s).

<< 46 47 48 49 50 51 52 >>
Time Temp. Humidity Pressure Rain* Wind** Luminosity Snow
1788089963 13.89° C 99% 1019 hPa 0 mm - 57 W/m² -
1788089658 13.89° C 99% 1019.1 hPa 0 mm - 56 W/m² -
1788089354 13.89° C 99% 1018.9 hPa 0 mm - 52 W/m² -
1788089050 13.33° C 99% 1018.9 hPa 0 mm - 56 W/m² -
1788088745 13.33° C 99% 1018.9 hPa 0 mm - 56 W/m² -
1788088441 13.33° C 99% 1018.8 hPa 0 mm - 64 W/m² -
1788088136 12.78° C 99% 1018.8 hPa 0 mm - 59 W/m² -
1788087832 12.78° C 99% 1018.8 hPa 0 mm - 60 W/m² -
1788087531 12.22° C 99% 1018.6 hPa 0 mm - 65 W/m² -
1788087228 12.22° C 99% 1018.7 hPa 0 mm - 57 W/m² -
1788086924 11.67° C 99% 1018.7 hPa 0 mm - 37 W/m² -
1788086620 11.67° C 99% 1018.8 hPa 0 mm - 33 W/m² -
1788086319 11.11° C 99% 1018.9 hPa 0 mm - 31 W/m² -
1788086015 10.56° C 99% 1019 hPa 0 mm - 27 W/m² -
1788085712 10.56° C 99% 1019.2 hPa 0 mm - 22 W/m² -
1788085409 10.56° C 99% 1019.3 hPa 0 mm - 15 W/m² -
1788085115 10° C 99% 1019 hPa 0 mm - 10 W/m² -
1788084799 10° C 99% 1019.3 hPa 0 mm - 7 W/m² -
1788084499 10° C 99% 1019.3 hPa 0 mm - 4 W/m² -
1788084194 10° C 99% 1019.2 hPa 0 mm - 3 W/m² -
1788083892 10° C 99% 1019 hPa 0 mm - 1 W/m² -
1788083589 10° C 99% 1019.2 hPa 0 mm - 1 W/m² -
1788083284 10° C 99% 1019.2 hPa 0 mm - 0 W/m² -
1788082981 10° C 99% 1019.2 hPa 0 mm - 0 W/m² -
1788082675 10° C 99% 1019.3 hPa 0 mm - 0 W/m² -

* Rain latest hour (hover to see other rain measurements)
** Current wind speed in m/s (hover to see current wind gust speed)